User: anonymous   Login
Location: Rounton
(54.4000°N, 1.3500°W)
Time: 19:27:20
(UTC+00:00)
Language:

COSMOS 2251 DEB - Orbit

View from above orbital plane
View from above orbital plane
View from above satellite
View from above satellite

Ground track
Ground track

The orbit data is extracted from the following two-line orbital elements,

1 33933U 93036EN  22331.83916856  .00000441  00000-0  17568-3 0  9998
2 33933  74.0899 278.5818 0077669 213.7013 145.9186 14.29868833718878
Epoch (UTC): 27 November 2022 20:08:24
Eccentricity: 0.0077669
inclination: 74.0899°
perigee height: 736 km
apogee height: 848 km
right ascension of ascending node: 278.5818°
argument of perigee: 213.7013°
revolutions per day: 14.29868833
mean anomaly at epoch: 145.9186°
orbit number at epoch: 71887

The dashed part of the orbit path shows where the satellite is in the earth's shadow,  

DLR